User: anonymous   Login
Location: Unspecified
(0.0000°N, 0.0000°E)
Time: 18:41:35
(UTC+00:00)
Language:

SES 6 - Orbit

View from above orbital plane
View from above orbital plane
View from above satellite
View from above satellite

Ground track
Ground track

The orbit data is extracted from the following two-line orbital elements,

1 39172U 13026A   17207.79143324 -.00000285 +00000-0 +00000-0 0  9990
2 39172 000.0224 048.1666 0001740 080.6345 060.2577 01.00270564015177
Epoch (UTC): 26 July 2017 18:59:39
Eccentricity: 0.0001740
inclination: 0.0224°
perigee height: 35779 km
apogee height: 35794 km
right ascension of ascending node: 48.1666°
argument of perigee: 80.6345°
revolutions per day: 1.00270564
mean anomaly at epoch: 60.2577°
orbit number at epoch: 1517

The dashed part of the orbit path shows where the satellite is in the earth's shadow,  

DLR